Overview Statistics Trail Chart Weather Telemetry Raw packets
 

This is the latest recevied weather packets stored in our database for station/object SR9NLI. If no packets are shown the sender has not sent any weather packets the latest 10 day(s).

<< 50 51 52 53 54 55 56 >>
Time Temp. Humidity Pressure Rain* Wind** Luminosity Snow
1777723301 17.78° C 100% 964.3 hPa - - - -
1777723250 17.78° C 100% 964.2 hPa - - - -
1777723179 17.78° C 100% 964.3 hPa - - - -
1777723055 17.78° C 100% 964.3 hPa - - - -
1777722932 18.89° C 100% 964.4 hPa - - - -
1777722872 18.33° C 100% 964.4 hPa - - - -
1777722810 18.89° C 100% 964.5 hPa - - - -
1777722686 18.89° C 100% 964.3 hPa - - - -
1777722564 18.33° C 100% 964.4 hPa - - - -
1777722503 18.33° C 100% 964.4 hPa - - - -
1777722441 18.33° C 100% 964.5 hPa - - - -
1777722319 18.33° C 100% 964.4 hPa - - - -
1777722195 17.78° C 100% 964.5 hPa - - - -
1777722141 17.78° C 100% 964.6 hPa - - - -
1777722072 17.78° C 100% 964.5 hPa - - - -
1777721948 17.78° C 100% 964.5 hPa - - - -
1777721825 17.78° C 100% 964.5 hPa - - - -
1777721764 17.78° C 100% 964.4 hPa - - - -
1777721701 17.78° C 100% 964.5 hPa - - - -
1777721578 17.78° C 100% 964.6 hPa - - - -
1777721455 17.78° C 100% 964.5 hPa - - - -
1777721394 17.78° C 100% 964.6 hPa - - - -
1777721328 18.33° C 100% 964.6 hPa - - - -
1777721205 18.33° C 100% 964.5 hPa - - - -
1777721082 17.78° C 100% 964.6 hPa - - - -

* Rain since midnight (hover to see other rain measurements)
** Current wind speed in m/s (hover to see current wind gust speed)